Rusiate Tiko

Recruteur en chef - Nasinu
23 Sept 2027
Jeudi
Processus

Personnalité

Adaptabilité (9) Ambition (7) Controverse (18) Loyauté (10) Pression (17) Professionnalisme (17) Sportivité (2) Tempérament (20)

Profil

Style d'entraînement Démocratique
Diplôme Continental C
Détermination 2
Gestion des joueurs 4
Motivation 2
Discipline 2
Satisfaction professionnelle
100%
Fatigue
0%
Rôle Recruteur en chef
Salaire 19.8K p/s
Contrat 14.03.2030

Performance

Comportement Bon
Efficacité de l'entraînement
19%
Développement des joueurs
20%
Prévention des blessures
25%
Mise en place tactique
15%

Événements récents

A évalué un joueur maintenant
A participé à une réunion de recrutement maintenant
A évalué un joueur maintenant
A évalué un joueur 7j
A évalué un joueur 7j
A évalué un joueur 7j
A évalué un joueur 7j
A évalué un joueur 7j

Suivi en cours

235
Joueur Club Statut Capacité Confiance Observé Dernière observation Dernier vote
Ali Mekawir Navua Actif 80 / 80 40% 5 22.09.2027 -
Mikheil Basheleishvili Bukhara Actif 69 / 102 40% 4 22.09.2027 -
Dimas Drajad Persib Actif 93 / 88 40% 1 22.09.2027 -
Samandar Sindarov Sogdiana Actif 61 / 65 40% 1 22.09.2027 -
James Durrington Brisbane Roar Actif 83 / 94 40% 5 21.09.2027 -
Bamidele Ayodamole Ba Actif 83 / 57 40% 3 21.09.2027 -
Ali Al-Yammahi Semen Padang Actif 46 / 65 40% 1 20.09.2027 -
Jesús Lara Jubilo Iwata Actif 82 / 79 40% 5 19.09.2027 -
Nathan Amanatidis Brisbane Roar Actif 91 / 86 40% 10 19.09.2027 -
Kristian Popovic Central Coast Mariners Actif 104 / 81 40% 10 18.09.2027 -
Wonderson Yakubu Hapoel Raanana Actif 93 / 103 40% 6 18.09.2027 -
Yacob Sayuri Maluku Utara United Actif 96 / 82 40% 4 18.09.2027 -
Ibrohim G'anixonov Mashal Actif 91 / 103 40% 3 18.09.2027 -
Brian Omondi Neftchi Actif 50 / 59 40% 2 15.09.2027 -
Joe Colvey Southern United Actif 70 / 52 40% 1 15.09.2027 -
Kolinio Sivoki Navua Actif 60 / 45 40% 1 15.09.2027 -
Maicon Silva Semen Padang Actif 62 / 72 40% 3 14.09.2027 -
Patrick Joseph Ba Actif 70 / 81 40% 2 14.09.2027 -
Angus Kilkolly Auckland City Actif 87 / 87 40% 11 13.09.2027 -
Yuval Kretzo Maccabi Petach Tikva Actif 79 / 65 40% 10 13.09.2027 -
Wahyudi Hamisi Persijap Actif 73 / 106 40% 2 13.09.2027 -
Seth Clark Sydney FC Actif 79 / 93 40% 1 13.09.2027 -
Zachary De Jesus Sydney FC Actif 78 / 83 40% 4 12.09.2027 -
Noah McCann Central Coast Mariners Actif 74 / 94 40% 5 12.09.2027 -
Monty Stamatelopoulos Canterbury United Actif 93 / 98 40% 3 10.09.2027 -
Steward Toata Nadroga Actif 53 / 47 40% 1 10.09.2027 -
Vincent Sithole Lautoka Actif 57 / 89 40% 2 09.09.2027 -
Ricki Ariansyah Semen Padang Actif 58 / 80 40% 2 09.09.2027 -
Jack Wale Navua Actif 55 / 58 40% 2 09.09.2027 -
Gabriel Silva Arema Actif 63 / 67 40% 2 08.09.2027 -
Wahyu Agong Semen Padang Actif 52 / 86 40% 2 06.09.2027 -
Paulo Gali Persebaya Actif 87 / 92 40% 2 06.09.2027 -
Sanzhar Kemelbek Taraz Actif 72 / 105 40% 2 06.09.2027 -
Oliver Middleton Auckland FC Actif 86 / 104 40% 4 05.09.2027 -
Jayden Smith Wellington Phoenix Actif 90 / 94 40% 2 05.09.2027 -
Chechu Maluku Utara United Actif 105 / 102 40% 1 05.09.2027 -
Sibusiso Tau Zhetysu Actif 51 / 79 40% 2 03.09.2027 -
Alfredo Trejo Avispa Fukuoka Actif 78 / 64 40% 1 03.09.2027 -
Ellis Spikner Hapoel Acre Actif 73 / 73 40% 1 03.09.2027 -
Adam Bell Auckland City Actif 87 / 81 40% 7 01.09.2027 -
Alexis Ordóñez Melbourne City Actif 86 / 89 40% 1 01.09.2027 -
Kayne Razmovski Ba Actif 54 / 77 40% 6 31.08.2027 -
Ilham Udin Armayn PSBS Biak Actif 95 / 92 40% 1 31.08.2027 -
Akeimi Ralulu Labasa Actif 54 / 73 40% 4 30.08.2027 -
Regont Murati Auckland City Actif 68 / 86 40% 4 28.08.2027 -
Daniel Simon Auckland City Actif 86 / 85 40% 3 27.08.2027 -
Edo Febriansyah Dewa United Actif 66 / 74 40% 2 26.08.2027 -
Andriano Lebib Perth Glory Actif 85 / 87 40% 6 25.08.2027 -
Jens Raven Bali United Actif 86 / 86 40% 3 25.08.2027 -
Askhat Nuserbayev Akzhaiyk Actif 69 / 67 40% 1 25.08.2027 -
Hojiakbar Mavlonov Labasa Actif 64 / 84 40% 1 25.08.2027 -
Ädilkhan Taňzharyqov Aktobe Actif 99 / 99 40% 1 25.08.2027 -
Nabil Begg Ba Actif 77 / 76 40% 2 24.08.2027 -
Zafarbek Akramov Mashal Actif 79 / 55 40% 1 24.08.2027 -
Dzaky Asraf Suva Actif 53 / 58 41% 2 22.08.2027 -
Nicholas Pennington Perth Glory Actif 104 / 119 40% 2 20.08.2027 -
Ben van Dorssen Rewa Actif 79 / 74 40% 5 19.08.2027 -
Otabek Abdullaev Obod Actif 89 / 94 40% 1 19.08.2027 -
Ali Auglah Central Coast Mariners Actif 84 / 96 40% 6 17.08.2027 -
Qobylandy Kamariden Okzhetpes Actif 63 / 85 40% 1 17.08.2027 -
Mansoor Mohammad Maluku Utara United Actif 61 / 68 40% 1 17.08.2027 -
Lucas Scicluna Perth Glory Actif 68 / 75 40% 4 16.08.2027 -
Xavier Stella Kairat Actif 75 / 96 40% 2 16.08.2027 -
Jayus Hariyono Arema Actif 66 / 55 40% 1 15.08.2027 -
Sam Singh WaiBOP United Actif 79 / 64 40% 2 14.08.2027 -
Krisna Bayu Otto Persik Actif 60 / 77 40% 3 14.08.2027 -
Nathan Barrie Hawke's Bay United Actif 74 / 83 40% 1 14.08.2027 -
Siyabonga Mkhize Lautoka Actif 79 / 93 40% 3 12.08.2027 -
Muhammad Toha Persita Actif 82 / 84 40% 2 12.08.2027 -
Joshua Inserra Melbourne Victory Actif 84 / 92 40% 4 11.08.2027 -
Ibrahim Hassan Nadroga Actif 57 / 45 40% 2 11.08.2027 -
Yamato Naito Ventforet Kofu Actif 96 / 74 40% 3 10.08.2027 -
Mauro Zijlstra Persija Actif 88 / 76 40% 2 07.08.2027 -
Cristóbal Valbuena Western Sydney Wanderers Actif 75 / 83 40% 1 07.08.2027 -
G'iyosjon Rizaqulov Qizilqum Actif 78 / 105 40% 2 05.08.2027 -
Koya Hayashida Ventforet Kofu Actif 96 / 86 40% 1 05.08.2027 -
Tevita Waranaivalu Rewa Actif 58 / 50 40% 1 04.08.2027 -
Kavian Rahmani Melbourne City Actif 98 / 98 40% 1 03.08.2027 -
Gavin Kwan Adsit Borneo Actif 100 / 59 40% 2 02.08.2027 -
Azamat Erden Taraz Actif 97 / 73 40% 1 02.08.2027 -
Rahul Naresh Ba Actif 76 / 58 40% 4 01.08.2027 -
Israel Boatwright Adelaide United Actif 93 / 99 40% 3 28.07.2027 -
Keaton Murray Maluku Utara United Actif 80 / 65 40% 2 28.07.2027 -
Christian Bracco Team Wellington Actif 79 / 74 40% 1 28.07.2027 -
Callum Reid Southern United Actif 75 / 91 40% 5 27.07.2027 -
Harrison Shillington Melbourne Victory Actif 73 / 86 40% 3 25.07.2027 -
Fredyan Wahyu Maluku Utara United Actif 69 / 64 40% 1 25.07.2027 -
Zane Helweh Macarthur FC Actif 73 / 91 40% 4 24.07.2027 -
Sahar Hershkovich Bnei Yehuda Actif 52 / 60 40% 2 24.07.2027 -
Richard Nkomo Newcastle Jets Actif 86 / 92 40% 5 23.07.2027 -
Nkosinathi Nyide Ba Actif 80 / 77 40% 3 22.07.2027 -
Saian Mūqanov Okzhetpes Actif 99 / 77 40% 3 22.07.2027 -
Daniel Castro Macarthur FC Actif 64 / 77 40% 1 19.07.2027 -
Bautista Alonso Omiya Ardija Actif 102 / 65 40% 1 18.07.2027 -
Riley Foxe Perth Glory Actif 96 / 100 40% 3 16.07.2027 -
Matías López Vélez Avispa Fukuoka Actif 96 / 77 40% 2 16.07.2027 -
Niv Tubul Hapoel Kfar Saba Actif 84 / 86 40% 5 15.07.2027 -
Alex Nunes Central Coast Mariners Actif 82 / 100 40% 2 13.07.2027 -
Yoga Adiatama Persik Actif 80 / 67 40% 2 12.07.2027 -
Junior Mpanza Irtysh Actif 72 / 58 40% 1 12.07.2027 -
Habibi Jusuf Borneo Actif 59 / 79 40% 4 09.07.2027 -
Sani Rizki PSBS Biak Actif 71 / 60 40% 2 09.07.2027 -
Owen Colvey WaiBOP United Actif 60 / 58 40% 1 09.07.2027 -
Muslimbek Habibullayev Navbahor Actif 63 / 79 40% 1 08.07.2027 -
Josaia Sela Rewa Actif 74 / 61 40% 1 06.07.2027 -
Ihab Abu Alshek Hapoel Raanana Actif 79 / 79 40% 2 05.07.2027 -
Sotiri Phillis Adelaide United Actif 89 / 102 40% 6 03.07.2027 -
Daniel Atlan Maccabi Netanya Actif 75 / 95 40% 2 03.07.2027 -
Tuiba Batiratu Nadi Actif 66 / 63 40% 1 03.07.2027 -
Bagas Adi Nugroho Bali United Actif 92 / 91 40% 4 29.06.2027 -
Kou Gotou Irtysh Actif 94 / 63 40% 1 26.06.2027 -
Peter Antoniou Auckland FC Actif 56 / 78 40% 3 25.06.2027 -
Logan Rogerson Auckland FC Actif 119 / 108 40% 2 25.06.2027 -
Alex Garbett Southern United Actif 74 / 58 40% 1 25.06.2027 -
Theo Numberi Dewa United Actif 52 / 75 40% 3 22.06.2027 -
Abdul Rahman PSM Actif 53 / 66 40% 1 22.06.2027 -
Chris Donnell Central Coast Mariners Actif 96 / 97 40% 3 18.06.2027 -
Irfan Jaya Bali United Actif 100 / 66 40% 1 18.06.2027 -
Chris Payne WaiBOP United Actif 70 / 69 40% 2 16.06.2027 -
Jimson Abana Nadi Actif 63 / 66 30% 1 / 1m 16.06.2027 -
Azizbek Usmonov Rewa Actif 63 / 56 40% 1 16.06.2027 -
Takumi Yasuno Vegalta Sendai Actif 68 / 60 40% 7 15.06.2027 -
Naftali Balay Akzhaiyk Actif 72 / 84 40% 2 12.06.2027 -
Zach Lisolajski Jubilo Iwata Actif 73 / 110 40% 3 11.06.2027 -
Koko Araya Persebaya Actif 76 / 67 40% 1 11.06.2027 -
Armando Oropa Semen Padang Actif 52 / 56 40% 1 09.06.2027 -
Ilhamsyah Madura United Actif 88 / 58 40% 2 07.06.2027 -
Afraz Ali Lautoka Actif 51 / 54 41% 1 01.06.2027 -
Josh Damevski Lautoka Actif 74 / 71 40% 1 01.06.2027 -
Mmatlou Sepale Waitakere United Actif 91 / 76 40% 3 30.05.2027 -
Yusaku Yamadera PSIM Actif 95 / 54 40% 1 28.05.2027 -
Juni Antara Bhayangkara Presisi Actif 66 / 56 40% 1 23.05.2027 -
Wataru Kamijo Sydney FC Actif 76 / 77 40% 5 22.05.2027 -
Moussa Diarra Shonan Bellmare Actif 87 / 104 40% 4 22.05.2027 -
Ryan Kurnia Bhayangkara Presisi Actif 53 / 95 40% 1 22.05.2027 -
Riley Dalziell Auckland FC Actif 84 / 100 40% 1 21.05.2027 -
Nicolas Riveros Bnei Sakhnin Actif 84 / 97 40% 3 17.05.2027 -
Sandro Embaló PSBS Biak Actif 89 / 83 40% 1 17.05.2027 -
Davronbek Usmonov Nasaf Actif 100 / 89 40% 1 14.05.2027 -
Alexvan Djin Persis Actif 73 / 70 40% 2 09.05.2027 -
Lucas Díaz Omiya Ardija Actif 82 / 98 40% 1 29.04.2027 -
Miras Zhaqsymbetov Taraz Actif 99 / 77 40% 4 25.04.2027 -
Valentín Morelini Perth Glory Actif 64 / 59 40% 2 24.04.2027 -
Sitiveni Rakai Labasa Actif 54 / 71 40% 2 23.04.2027 -
Dendy Sulistyawan Persija Actif 75 / 94 40% 1 20.04.2027 -
Aporosa Yada Labasa Actif 54 / 77 40% 1 19.04.2027 -
Victor Campos Bnei Yehuda Actif 66 / 65 40% 2 17.04.2027 -
Ryan Kalms Melbourne City Actif 77 / 86 40% 2 16.04.2027 -
Kishan Sami Ba Actif 78 / 54 40% 2 15.04.2027 -
Michael Merenstein Hapoel Acre Actif 75 / 83 40% 1 14.04.2027 -
Javohir Ro'ziyev Bukhara Actif 84 / 113 40% 1 14.04.2027 -
Wahyu Prasetyo Dewa United Actif 99 / 95 40% 2 13.04.2027 -
Abdulaziz Al-Asbahi Bhayangkara Presisi Actif 82 / 72 40% 1 13.04.2027 -
Barrie Limoki Nadroga Actif 50 / 77 40% 1 13.04.2027 -
G'anisher Qodirov Shortan Actif 55 / 96 40% 6 09.04.2027 -
Sūltan Shymyrkhan Shakhter Actif 55 / 58 40% 3 08.04.2027 -
Yehonatan Malka Hapoel Kiryat Shmona Actif 49 / 68 40% 2 03.04.2027 -
João Ferrari Bali United Actif 54 / 83 40% 2 02.04.2027 -
Paulo Sitanggang Madura United Actif 74 / 58 40% 1 01.04.2027 -
Will McKay Macarthur FC Actif 73 / 94 40% 5 28.03.2027 -
Jajá Melbourne Victory Actif 83 / 79 40% 1 28.03.2027 -
Hokky Caraka Persita Actif 71 / 88 40% 2 25.03.2027 -
Muhammad Arfan PSM Actif 71 / 72 40% 1 22.03.2027 -
Alan Duré Maccabi Petach Tikva Actif 64 / 63 40% 1 17.03.2027 -
Bailey O'Neil Adelaide United Actif 91 / 75 40% 3 15.03.2027 -
Zayed Khamis Andijon Actif 55 / 80 40% 1 14.03.2027 -
Jurato Ikeda Avispa Fukuoka Actif 78 / 77 40% 1 14.03.2027 -
Alon Demol Hapoel Kfar Saba Actif 84 / 52 40% 1 10.03.2027 -
Dony Tri Pamungkas Persija Actif 87 / 91 40% 2 06.03.2027 -
Farrux Jo'rayev Qizilqum Actif 60 / 70 40% 3 01.03.2027 -
Michael Pistiner Bnei Yehuda Actif 84 / 101 40% 1 27.02.2027 -
Miraziz Mahamadaliyev Andijon Actif 50 / 68 40% 1 26.02.2027 -
Anvar Murodov Mashal Actif 58 / 65 40% 1 22.02.2027 -
Taisei Kuwata Hapoel Raanana Actif 88 / 70 40% 1 20.02.2027 -
Roy Buganim Hapoel Kfar Saba Actif 59 / 59 40% 2 19.02.2027 -
Or Hasin Hapoel Kiryat Shmona Actif 56 / 65 40% 2 16.02.2027 -
Federico Soria Hapoel Kiryat Shmona Actif 91 / 72 40% 1 16.02.2027 -
Amin Abu Khalifa Neftchi Actif 63 / 55 40% 1 15.02.2027 -
Abdul Mumini Salifu Rewa Actif 44 / 50 40% 1 12.02.2027 -
Dilshodbek Misraliyev Sogdiana Actif 62 / 62 40% 2 08.02.2027 -
Toshikazu Teruuchi Urawa Reds Actif 97 / 58 40% 3 08.02.2027 -
Iowane Matanisiga Labasa Actif 55 / 57 40% 2 04.02.2027 -
Zafarbek Rahimjonov Zhetysu Actif 66 / 49 40% 2 29.01.2027 -
Masahito Ono Nagoya Grampus Actif 70 / 103 40% 3 25.01.2027 -
Albert Nurullayev Bukhara Actif 57 / 47 40% 1 25.01.2027 -
Alisher Xayrullayev Bukhara Actif 92 / 56 40% 4 22.01.2027 -
Iksan Lestaluhu Arema Actif 77 / 69 40% 1 22.01.2027 -
Eldor Ahmedov Obod Actif 71 / 79 40% 2 20.01.2027 -
Shahar Mizrahi Bnei Yehuda Actif 66 / 57 40% 1 20.01.2027 -
Ryota Kamihashi Avispa Fukuoka Actif 69 / 83 40% 1 18.01.2027 -
Andrew Zamorano Rewa Actif 81 / 83 40% 1 16.01.2027 -
Eiji Shirai Albirex Niigata Actif 80 / 96 40% 1 12.01.2027 -
Deklan Nelson WaiBOP United Actif 56 / 59 40% 1 12.01.2027 -
Etonia Dogalau Ba Actif 50 / 52 40% 1 10.01.2027 -
Tzuri Zeituni Maccabi Netanya Actif 44 / 67 40% 1 08.01.2027 -
Matías Nicosia Hapoel Kfar Saba Actif 61 / 69 40% 2 31.12.2026 -
Setareki Hughes Rewa Actif 61 / 84 40% 1 29.12.2026 -
Dane Lewis Auckland City Actif 69 / 84 40% 2 28.12.2026 -
Omer Korsia Metallurg Actif 81 / 63 40% 1 14.11.2026 -
Asan Vaniyev Mashal Actif 49 / 70 40% 1 11.11.2026 -
Abdallah Maga Mashal Actif 46 / 70 40% 1 06.11.2026 -
Kotaro Honda Shonan Bellmare Actif 68 / 71 40% 1 06.11.2026 -
Shun Isotani Sagan Tosu Actif 96 / 66 40% 1 03.11.2026 -
Saidislombek Paxlavonov Kokand 1912 Actif 59 / 45 40% 2 31.10.2026 -
Abror Karimov AGMK Actif 52 / 96 40% 1 31.10.2026 -
Alper Özdemi̇r Kokand 1912 Actif 67 / 71 40% 3 23.10.2026 -
Hosine Bility Brisbane Roar Actif 83 / 82 40% 2 16.10.2026 -
Rian Islomov AGMK Actif 73 / 90 40% 1 15.10.2026 -
Javohir Ubaydullayev Nasaf Actif 90 / 59 40% 2 13.10.2026 -
Baek In-Hwan FC Tokyo Actif 89 / 86 40% 1 13.10.2026 -
Achmad Figo Borneo Actif 80 / 57 40% 1 11.10.2026 -
Hidetoshi Takeda Vegalta Sendai Actif 61 / 96 40% 2 01.10.2026 -
Kamron Norqulov Qizilqum Actif 73 / 53 40% 1 29.09.2026 -
Leon Kofana Rewa Actif 51 / 81 40% 2 28.09.2026 -
Merabi Bregvadze Hapoel Acre Actif 41 / 71 40% 1 28.09.2026 -
Yuval Shalev Beitar Jerusalem Actif 81 / 95 40% 1 24.09.2026 -
Simione Nabenu Suva Actif 49 / 81 40% 1 20.09.2026 -
Tohirbek To'xtasinov Sogdiana Actif 68 / 82 40% 2 17.09.2026 -
Agung Mannan PSM Actif 84 / 97 40% 1 16.09.2026 -
Ūlyqbek Khaitmuratov Taraz Actif 51 / 60 40% 1 11.09.2026 -
Atonio Tuivuna Lautoka Actif 44 / 53 40% 1 09.09.2026 -
Ahmad Rusadi Madura United Actif 71 / 89 40% 1 06.09.2026 -
Harel Goldenberg Hapoel Kiryat Shmona Actif 80 / 80 40% 1 02.09.2026 -
Kadek Arel Bali United Actif 55 / 90 40% 1 28.08.2026 -
Ulug'bek Xoliqov Shortan Actif 47 / 88 40% 1 26.08.2026 -
Nishal Sharma Suva Actif 38 / 41 37% 1 17.08.2026 -
Mirziyod Mirodilov Kokand 1912 Actif 48 / 75 40% 1 12.08.2026 -
Tim Tuiloma Canterbury United Actif 52 / 80 40% 1 07.08.2026 -
Ronen Gradashov Bnei Yehuda Actif 75 / 94 40% 1 04.08.2026 -
Dimas Roni Saputra Semen Padang Actif 54 / 79 40% 1 04.08.2026 -
Islombek Baratov Mashal Actif 114 / 85 40% 1 02.08.2026 -
Izzatullo Abdulhaqov Mashal Actif 71 / 87 40% 1 02.08.2026 -
Raphael Success Zhetysu Actif 90 / 95 40% 1 02.08.2026 -
Jaiden Kucharski Perth Glory Actif 91 / 70 40% 1 01.08.2026 -
Jing Reec Macarthur FC Actif 87 / 81 40% 1 01.08.2026 -